Location: Unspecified
(0.0000°N, 0.0000°E)
Time: 04:41:52
(UTC+00:00)

STARLINK-35348 - Visible Passes

Search period start: 14 February 2026 00:00
Search period end: 24 February 2026 00:00
Orbit: 474 x 476 km, 53.2° (Epoch: 11 February)

Date Brightness Start Highest point End Pass type
(mag) Time Alt. Az. Time Alt. Az. Time Alt. Az.
19 Feb 4.4 19:55:51 10° SSW 19:57:08 20° S 19:57:08 20° S visible
20 Feb 3.0 19:26:01 10° SSW 19:29:12 36° SE 19:29:12 36° SE visible
21 Feb 3.3 18:56:13 10° S 18:59:25 28° SE 19:01:20 18° ENE visible
22 Feb 5.1 20:05:03 10° W 20:07:00 14° NW 20:07:40 13° NW visible
23 Feb 4.9 19:34:22 10° W 19:36:53 17° NW 19:39:23 10° NNW visible
